Overview Statistics Trail Chart Weather Telemetry Raw packets
 

This is the latest recevied weather packets stored in our database for station/object W6MAF. If no packets are shown the sender has not sent any weather packets the latest 10 day(s).

<< 17 18 19 20 21 22 23 >>
Time Temp. Humidity Pressure Rain* Wind** Luminosity Snow
1788554270 25.56° C 6% - 0 mm 8.49 m/s, 181° - -
1788553972 26.11° C 6% - 0 mm 5.81 m/s, 195° - -
1788553674 26.11° C 5% - 0 mm 6.26 m/s, 212° - -
1788553374 26.11° C 5% - 0 mm 5.81 m/s, 205° - -
1788553076 26.67° C 5% - 0 mm 5.36 m/s, 195° - -
1788552778 26.67° C 5% - 0 mm 7.6 m/s, 226° - -
1788552480 26.11° C 5% - 0 mm 0 m/s - -
1788552183 26.11° C 5% - 0 mm 6.71 m/s, 229° - -
1788551885 26.11° C 5% - 0 mm 2.24 m/s, 225° - -
1788551584 26.11° C 5% - 0 mm 4.92 m/s, 211° - -
1788551286 25.56° C 6% - 0 mm 0.45 m/s, 248° - -
1788550691 25° C 6% - 0 mm 0 m/s - -
1788550393 25° C 6% - 0 mm 0 m/s - -
1788550096 25° C 6% - 0 mm 4.92 m/s, 207° - -
1788549795 24.44° C 6% - 0 mm 3.13 m/s, 218° - -
1788549497 24.44° C 6% - 0 mm 1.79 m/s, 222° - -
1788549199 23.89° C 6% - 0 mm 3.58 m/s, 183° - -
1788548901 24.44° C 6% - 0 mm 3.13 m/s, 193° - -
1788548604 24.44° C 6% - 0 mm 4.02 m/s, 204° - -
1788548306 23.89° C 6% - 0 mm 3.13 m/s, 233° - -
1788548005 23.89° C 6% - 0 mm 2.68 m/s, 221° - -
1788547707 23.33° C 7% - 0 mm 5.36 m/s, 205° - -
1788547112 23.33° C 6% - 0 mm 4.02 m/s, 211° - -
1788546814 23.33° C 6% - 0 mm 6.71 m/s, 235° - -
1788546517 22.78° C 6% - 0 mm 6.71 m/s, 214° - -

* Rain latest hour (hover to see other rain measurements)
** Current wind speed in m/s (hover to see current wind gust speed)